sat.trackr.live / text

‹ back to catalog

STARLINK-2636

NORAD 48357 · 2021-038E

PAYLOAD ACTIVE UNKNOWN

§ Identity

Operator
Country
US
Launch date
2021-05-04
Launch site
AFETR
Launch vehicle
Mass (kg)
RCS (m²)

Purposes: comms

External: N2YO · Heavens-Above · Gunter

§ Orbital elements

Epoch: 2026-05-25T00:11:39.835680Z

Period
94.01 min
Inclination
53.1613°
Eccentricity
0.0001135
Mean motion
15.31706660 rev/d
Perigee alt
469.9 km
Apogee alt
471.5 km
Semi-major
6,848.9 km
B*
2.2573e-4
RAAN
3.2061°
Arg perigee
91.9409°
Mean anomaly
268.1722°
Rev number
27,877

§ Raw data

STARLINK-26361 48357U 21038E   26145.00809995  .00006647  00000+0  22573-3 0  99932 48357  53.1613   3.2061 0001135  91.9409 268.1722 15.31706660278776

JSON: /api/v1/satellites/48357 · /tle

For live sub-satellite position, see the globe view (requires WebGL).

§ Visibility from observer

Set your observer location to see the next 7 days of passes ≥ 10°. The values pass through the URL so the page stays shareable.

No JS? Fill the form by hand. The geolocation button needs JavaScript.